ARG1785 SARI-SABE

Flight info

Callsign ARG1785
Flight time N/A
Altitude 34000
Route NAIDE1C NAIDE UT667 GEMSU UN785 GUA UZ129 PAGON PAGON8Q
Aircraft B738/M-SDE2E3FGHIRWXY/LB1

Departure

Time 2026-04-14 19:52
Airport Cataratas Del Iguazú International Airport (SARI)

Arrival

Time N/A
Airport Aeroparque Jorge Newbery (SABE)
Time Latitude Longitude Altitude Speed Heading
2026-04-14 19:36 -25.73226 -54.47675 906 ft 0 kts 25°
2026-04-14 19:42 -25.73238 -54.47682 909 ft 2 kts 26°
2026-04-14 19:43 -25.73246 -54.47686 908 ft 2 kts 26°
2026-04-14 19:43 -25.73258 -54.47693 909 ft 2 kts 13°
2026-04-14 19:43 -25.73266 -54.47694 907 ft 1 kts 331°
2026-04-14 19:43 -25.73271 -54.47690 910 ft 1 kts 304°
2026-04-14 19:44 -25.73274 -54.47684 909 ft 1 kts 297°
2026-04-14 19:44 -25.73277 -54.47678 908 ft 1 kts 295°
2026-04-14 19:44 -25.73278 -54.47676 908 ft 0 kts 294°
2026-04-14 19:47 -25.73273 -54.47687 909 ft 4 kts 295°
2026-04-14 19:47 -25.73259 -54.47721 910 ft 5 kts 295°
2026-04-14 19:47 -25.73243 -54.47760 906 ft 6 kts 294°
2026-04-14 19:48 -25.73227 -54.47799 906 ft 6 kts 292°
2026-04-14 19:48 -25.73221 -54.47841 906 ft 6 kts 270°
2026-04-14 19:48 -25.73222 -54.47883 906 ft 5 kts 265°
2026-04-14 19:48 -25.73225 -54.47925 907 ft 5 kts 265°
2026-04-14 19:49 -25.73229 -54.47966 907 ft 5 kts 264°
2026-04-14 19:49 -25.73233 -54.48012 907 ft 7 kts 264°
2026-04-14 19:49 -25.73239 -54.48077 908 ft 10 kts 264°
2026-04-14 19:49 -25.73245 -54.48160 910 ft 11 kts 266°
2026-04-14 19:50 -25.73253 -54.48249 913 ft 12 kts 263°
2026-04-14 19:50 -25.73260 -54.48341 917 ft 14 kts 264°
2026-04-14 19:50 -25.73257 -54.48461 916 ft 18 kts 286°
2026-04-14 19:50 -25.73194 -54.48621 919 ft 25 kts 294°
2026-04-14 19:51 -25.73112 -54.48756 917 ft 17 kts 315°
2026-04-14 19:51 -25.73113 -54.48804 919 ft 3 kts 156°
2026-04-14 19:51 -25.73125 -54.48786 915 ft 0 kts 115°
2026-04-14 19:52 -25.73134 -54.48767 915 ft 19 kts 115°
2026-04-14 19:52 -25.73311 -54.48344 917 ft 99 kts 115°
2026-04-14 19:52 -25.73700 -54.47408 917 ft 166 kts 115°
2026-04-14 19:52 -25.74212 -54.46172 1578 ft 170 kts 112°
2026-04-14 19:53 -25.74707 -54.45004 2573 ft 174 kts 111°
2026-04-14 19:53 -25.75218 -54.43705 3180 ft 201 kts 110°
2026-04-14 19:53 -25.75794 -54.42191 3425 ft 229 kts 110°
2026-04-14 19:53 -25.76503 -54.40513 3929 ft 247 kts 114°
2026-04-14 19:54 -25.77611 -54.39008 4399 ft 266 kts 141°
2026-04-14 19:54 -25.81367 -54.37929 5811 ft 288 kts 175°
2026-04-14 19:54 -25.83376 -54.37817 6666 ft 290 kts 176°
2026-04-14 19:55 -25.85391 -54.37720 7472 ft 291 kts 177°
2026-04-14 19:55 -25.87407 -54.37617 8184 ft 295 kts 176°
2026-04-14 19:55 -25.89467 -54.37503 8970 ft 298 kts 176°
2026-04-14 19:55 -25.91544 -54.37379 9786 ft 299 kts 176°
2026-04-14 19:56 -25.93639 -54.37247 10354 ft 308 kts 176°
2026-04-14 19:56 -25.95841 -54.37104 10754 ft 323 kts 176°
2026-04-14 19:56 -25.98106 -54.36954 11315 ft 329 kts 176°
2026-04-14 19:56 -26.00409 -54.36800 12018 ft 333 kts 176°
2026-04-14 19:57 -26.02736 -54.36643 12695 ft 336 kts 176°
2026-04-14 19:57 -26.05087 -54.36483 13348 ft 341 kts 176°
2026-04-14 19:57 -26.07473 -54.36321 13980 ft 345 kts 177°
2026-04-14 19:57 -26.09847 -54.36159 14590 ft 348 kts 177°
2026-04-14 19:58 -26.12273 -54.35993 15192 ft 351 kts 177°
2026-04-14 19:58 -26.14757 -54.35824 15787 ft 355 kts 176°
2026-04-14 19:58 -26.17200 -54.35657 16350 ft 358 kts 176°
2026-04-14 19:58 -26.19712 -54.35485 16911 ft 362 kts 176°
2026-04-14 19:59 -26.22238 -54.35313 17472 ft 365 kts 176°
2026-04-14 19:59 -26.24782 -54.35205 18012 ft 368 kts 184°
2026-04-14 19:59 -26.27288 -54.35818 18502 ft 370 kts 198°
2026-04-14 19:59 -26.29740 -54.36727 19019 ft 372 kts 200°
2026-04-14 20:00 -26.32192 -54.37674 19516 ft 374 kts 200°
2026-04-14 20:00 -26.34664 -54.38629 19995 ft 377 kts 201°
2026-04-14 20:00 -26.37166 -54.39586 20460 ft 381 kts 201°
2026-04-14 20:00 -26.39688 -54.40540 20929 ft 384 kts 201°
2026-04-14 20:01 -26.42235 -54.41495 21405 ft 387 kts 201°
2026-04-14 20:01 -26.44770 -54.42441 21863 ft 390 kts 201°
2026-04-14 20:01 -26.47363 -54.43406 22310 ft 393 kts 202°
2026-04-14 20:01 -26.49973 -54.44377 22755 ft 396 kts 202°
2026-04-14 20:02 -26.52604 -54.45356 23176 ft 400 kts 202°
2026-04-14 20:02 -26.55252 -54.46341 23584 ft 403 kts 202°
2026-04-14 20:02 -26.57926 -54.47337 23975 ft 405 kts 202°
2026-04-14 20:02 -26.60595 -54.48331 24409 ft 405 kts 202°
2026-04-14 20:03 -26.63280 -54.49332 24835 ft 406 kts 203°
2026-04-14 20:03 -26.65962 -54.50332 25263 ft 406 kts 203°
2026-04-14 20:03 -26.68612 -54.51321 25693 ft 406 kts 203°
2026-04-14 20:03 -26.71243 -54.52448 26080 ft 402 kts 214°
2026-04-14 20:04 -26.73601 -54.54097 26474 ft 400 kts 218°
2026-04-14 20:04 -26.75930 -54.55825 26858 ft 401 kts 218°
2026-04-14 20:04 -26.78251 -54.57563 27233 ft 402 kts 218°
2026-04-14 20:04 -26.80587 -54.59305 27611 ft 403 kts 218°
2026-04-14 20:05 -26.82933 -54.61043 27977 ft 405 kts 218°
2026-04-14 20:05 -26.85292 -54.62779 28333 ft 406 kts 218°
2026-04-14 20:05 -26.87657 -54.64513 28698 ft 407 kts 218°
2026-04-14 20:05 -26.90030 -54.66250 29052 ft 409 kts 218°
2026-04-14 20:06 -26.92417 -54.67994 29409 ft 410 kts 218°
2026-04-14 20:06 -26.94776 -54.69718 29788 ft 410 kts 218°
2026-04-14 20:06 -26.97174 -54.71472 30095 ft 411 kts 218°
2026-04-14 20:06 -26.99574 -54.73229 30362 ft 413 kts 218°
2026-04-14 20:07 -27.01988 -54.74996 30619 ft 415 kts 218°
2026-04-14 20:07 -27.04405 -54.76768 30883 ft 416 kts 218°
2026-04-14 20:07 -27.06834 -54.78549 31146 ft 418 kts 218°
2026-04-14 20:07 -27.09271 -54.80336 31393 ft 419 kts 218°
2026-04-14 20:08 -27.11722 -54.82135 31623 ft 421 kts 218°
2026-04-14 20:08 -27.14175 -54.83937 31863 ft 422 kts 218°
2026-04-14 20:08 -27.16644 -54.85750 32103 ft 424 kts 218°
2026-04-14 20:08 -27.19117 -54.87568 32325 ft 425 kts 218°
2026-04-14 20:09 -27.21592 -54.89389 32557 ft 426 kts 219°
2026-04-14 20:09 -27.24047 -54.91195 32789 ft 427 kts 219°
2026-04-14 20:09 -27.26534 -54.93026 33003 ft 429 kts 219°
2026-04-14 20:09 -27.29030 -54.94865 33190 ft 430 kts 219°
2026-04-14 20:10 -27.31541 -54.96716 33388 ft 432 kts 219°
2026-04-14 20:10 -27.33895 -54.98767 33549 ft 425 kts 231°
2026-04-14 20:10 -27.35659 -55.01410 33711 ft 418 kts 245°
2026-04-14 20:10 -27.36999 -55.04302 33898 ft 417 kts 247°
2026-04-14 20:11 -27.38275 -55.07194 33894 ft 417 kts 248°
2026-04-14 20:11 -27.40835 -55.13036 33900 ft 414 kts 247°
2026-04-14 20:12 -27.43413 -55.18827 33909 ft 413 kts 247°
2026-04-14 20:12 -27.46006 -55.24594 33908 ft 412 kts 247°
2026-04-14 20:13 -27.48606 -55.30371 33909 ft 412 kts 247°
2026-04-14 20:13 -27.51183 -55.36106 33903 ft 413 kts 247°
2026-04-14 20:14 -27.53783 -55.41900 33901 ft 414 kts 247°
2026-04-14 20:14 -27.56384 -55.47706 33902 ft 416 kts 247°
2026-04-14 20:15 -27.58995 -55.53541 33903 ft 417 kts 247°
2026-04-14 20:15 -27.62052 -55.59132 33894 ft 428 kts 229°
2026-04-14 20:16 -27.66897 -55.63162 33897 ft 437 kts 218°
2026-04-14 20:16 -27.72014 -55.66894 33896 ft 439 kts 218°
2026-04-14 20:17 -27.77110 -55.70640 33882 ft 439 kts 218°
2026-04-14 20:17 -27.82209 -55.74449 33892 ft 440 kts 218°
2026-04-14 20:18 -27.87305 -55.78284 33889 ft 440 kts 218°
2026-04-14 20:18 -27.92398 -55.82127 33888 ft 439 kts 218°
2026-04-14 20:19 -27.97482 -55.85966 33884 ft 439 kts 218°
2026-04-14 20:19 -28.02557 -55.89802 33887 ft 437 kts 218°
2026-04-14 20:20 -28.07583 -55.93604 33891 ft 436 kts 218°
2026-04-14 20:20 -28.12627 -55.97425 33884 ft 435 kts 218°
2026-04-14 20:21 -28.17655 -56.01238 33880 ft 435 kts 218°
2026-04-14 20:21 -28.22690 -56.05061 33886 ft 435 kts 217°
2026-04-14 20:22 -28.27684 -56.08858 33884 ft 435 kts 217°
2026-04-14 20:22 -28.32712 -56.12685 33887 ft 435 kts 217°
2026-04-14 20:23 -28.37749 -56.16523 33886 ft 437 kts 217°
2026-04-14 20:23 -28.42813 -56.20385 33886 ft 439 kts 217°
2026-04-14 20:24 -28.47895 -56.24266 33884 ft 441 kts 217°
2026-04-14 20:24 -28.52996 -56.28167 33884 ft 443 kts 217°
2026-04-14 20:25 -28.58119 -56.32088 33884 ft 444 kts 217°
2026-04-14 20:25 -28.63223 -56.36000 33890 ft 446 kts 216°
2026-04-14 20:26 -28.68379 -56.39956 33884 ft 447 kts 216°
2026-04-14 20:26 -28.73543 -56.43924 33888 ft 447 kts 216°
2026-04-14 20:27 -28.78664 -56.47863 33884 ft 447 kts 216°
2026-04-14 20:27 -28.83815 -56.51831 33884 ft 446 kts 216°
2026-04-14 20:28 -28.88964 -56.55800 33886 ft 446 kts 217°
2026-04-14 20:28 -28.94110 -56.59771 33885 ft 445 kts 217°
2026-04-14 20:29 -28.99245 -56.63739 33888 ft 445 kts 217°
2026-04-14 20:29 -29.04335 -56.67677 33888 ft 444 kts 217°
2026-04-14 20:30 -29.09458 -56.71647 33885 ft 443 kts 217°
2026-04-14 20:30 -29.13701 -56.74938 33885 ft 442 kts 217°
2026-04-14 20:31 -29.18794 -56.78893 33886 ft 442 kts 217°
2026-04-14 20:31 -29.23864 -56.82835 33888 ft 441 kts 217°
2026-04-14 20:32 -29.28940 -56.86787 33885 ft 440 kts 217°
2026-04-14 20:32 -29.33999 -56.90730 33889 ft 439 kts 217°
2026-04-14 20:33 -29.39020 -56.94648 33884 ft 438 kts 217°
2026-04-14 20:33 -29.44062 -56.98587 33874 ft 438 kts 217°
2026-04-14 20:34 -29.51603 -57.04489 33869 ft 437 kts 217°
2026-04-14 20:34 -29.56626 -57.08424 33864 ft 436 kts 218°
2026-04-14 20:35 -29.61648 -57.12366 33861 ft 436 kts 218°
2026-04-14 20:35 -29.66616 -57.16269 33860 ft 436 kts 218°
2026-04-14 20:36 -29.71630 -57.20213 33856 ft 435 kts 218°
2026-04-14 20:36 -29.76628 -57.24149 33861 ft 435 kts 218°
2026-04-14 20:37 -29.81595 -57.28065 33866 ft 434 kts 218°
2026-04-14 20:37 -29.86583 -57.32004 33874 ft 434 kts 218°
2026-04-14 20:38 -29.91558 -57.35936 33878 ft 434 kts 219°
2026-04-14 20:38 -29.96537 -57.39877 33887 ft 433 kts 219°
2026-04-14 20:39 -30.01512 -57.43820 33891 ft 433 kts 219°
2026-04-14 20:39 -30.06476 -57.47759 33887 ft 433 kts 219°
2026-04-14 20:40 -30.11414 -57.51682 33888 ft 433 kts 219°
2026-04-14 20:40 -30.16385 -57.55637 33890 ft 433 kts 219°
2026-04-14 20:41 -30.21350 -57.59591 33892 ft 433 kts 219°
2026-04-14 20:41 -30.26404 -57.63430 33880 ft 438 kts 212°
2026-04-14 20:42 -30.32167 -57.65892 33895 ft 445 kts 201°
2026-04-14 20:43 -30.41090 -57.68878 33893 ft 446 kts 201°
2026-04-14 20:43 -30.47049 -57.70929 33894 ft 447 kts 201°
2026-04-14 20:44 -30.53021 -57.73015 33895 ft 448 kts 201°
2026-04-14 20:44 -30.58995 -57.75108 33895 ft 449 kts 201°
2026-04-14 20:45 -30.64979 -57.77205 33895 ft 450 kts 201°
2026-04-14 20:45 -30.70981 -57.79307 33895 ft 450 kts 201°
2026-04-14 20:46 -30.76985 -57.81398 33886 ft 450 kts 201°
2026-04-14 20:46 -30.82998 -57.83491 33899 ft 451 kts 201°
2026-04-14 20:47 -30.88964 -57.85573 33898 ft 451 kts 201°
2026-04-14 20:47 -30.94973 -57.87673 33895 ft 451 kts 201°
2026-04-14 20:48 -31.00994 -57.89780 33899 ft 451 kts 201°
2026-04-14 20:48 -31.07002 -57.91887 33900 ft 451 kts 201°
2026-04-14 20:49 -31.13011 -57.93995 33893 ft 451 kts 202°
2026-04-14 20:49 -31.19032 -57.96112 33893 ft 451 kts 202°
2026-04-14 20:50 -31.25040 -57.98226 33886 ft 451 kts 202°
2026-04-14 20:50 -31.31057 -58.00346 33880 ft 451 kts 202°
2026-04-14 20:51 -31.37034 -58.02456 33890 ft 452 kts 202°
2026-04-14 20:51 -31.43059 -58.04584 33912 ft 452 kts 202°
2026-04-14 20:52 -31.44074 -58.04943 33913 ft 452 kts 202°